sat.trackr.live / text

‹ back to catalog

STARLINK-3327

NORAD 50819 · 2022-001S

PAYLOAD ACTIVE UNKNOWN

§ Identity

Operator
Country
US
Launch date
2022-01-06
Launch site
AFETR
Launch vehicle
Mass (kg)
RCS (m²)

Purposes: comms

External: N2YO · Heavens-Above · Gunter

§ Orbital elements

Epoch: 2026-05-25T03:27:01.640736Z

Period
95.44 min
Inclination
53.2115°
Eccentricity
0.0001037
Mean motion
15.08834612 rev/d
Perigee alt
539.0 km
Apogee alt
540.5 km
Semi-major
6,917.9 km
B*
9.7028e-6
RAAN
185.9059°
Arg perigee
95.9568°
Mean anomaly
264.1542°
Rev number
24,195

§ Raw data

STARLINK-33271 50819U 22001S   26145.14376899 -.00000133  00000+0  97028-5 0  99912 50819  53.2115 185.9059 0001037  95.9568 264.1542 15.08834612241955

JSON: /api/v1/satellites/50819 · /tle

For live sub-satellite position, see the globe view (requires WebGL).

§ Visibility from observer

Set your observer location to see the next 7 days of passes ≥ 10°. The values pass through the URL so the page stays shareable.

No JS? Fill the form by hand. The geolocation button needs JavaScript.